Theta_e
304 304 304 304 304 303 302 302 301 301 300 300 299 298 297 297 296 296 295 295 295 295 295 295 295 295 295 295 296 296 296 296 296 296 296 296 296 295 295 295 295 295 295 295 294 294 294 294 294 294 294 294 293 293 292 292 291 291 291 291 291 291 292 292 292 292 292 292 293 293 294 294 295 295 295 295 295 295 295 295 295 295 294 295 295 295
304 304 304 304 303 303 302 301 300 300 300 299 299 298 298 297 297 296 297 296 296 296 296 296 295 295 295 295 295 295 295 295 295 295 295 295 295 295 295 295 294 294 294 294 294 294 294 293 293 292 291 290 290 289 288 289 289 290 291 290 291 291 291 291 291 291 291 291 291 292 292 293 293 293 294 294 294 294 294 294 294 293 293 293 293 293
304 303 303 303 302 302 301 301 300 300 299 299 299 299 298 298 298 298 298 298 298 297 297 297 297 296 296 296 296 296 296 296 296 295 295 295 295 294 294 293 293 293 293 292 292 292 291 290 289 288 287 287 286 286 287 288 289 290 291 291 290 290 290 290 290 290 290 290 290 290 290 291 291 291 291 292 292 292 292 292 291 292 292 292 292 292
303 303 302 302 301 301 301 301 300 299 299 299 299 298 298 298 298 298 298 298 298 298 297 297 297 297 297 297 296 296 296 296 296 295 295 294 293 293 293 292 292 292 291 290 290 289 288 287 287 286 286 286 286 286 287 288 289 290 290 290 290 290 290 290 290 290 290 290 290 290 290 290 290 290 290 290 290 290 290 290 290 290 291 291 291 291
302 302 301 301 301 300 300 300 300 299 299 299 299 298 298 298 298 298 298 298 297 297 297 297 297 297 296 296 296 296 296 295 295 294 294 293 292 292 291 291 290 290 289 288 288 287 287 286 286 286 286 286 287 288 289 289 290 290 290 291 291 290 290 290 290 290 290 290 290 290 290 289 289 289 289 289 289 289 290 290 290 290 290 290 291 291
301 301 301 300 300 300 300 299 299 299 299 299 299 298 298 298 298 298 297 297 297 297 296 296 296 296 295 295 295 295 294 294 293 293 292 291 291 290 289 289 288 288 288 288 287 287 287 286 286 286 287 287 287 288 289 289 290 290 290 291 290 290 290 289 289 289 289 289 289 289 289 289 289 289 289 289 289 289 289 289 289 289 289 290 290 290
300 300 300 300 299 299 299 299 299 299 298 298 298 298 298 298 298 297 297 296 296 296 295 295 295 294 294 293 293 292 292 291 291 290 290 289 289 288 288 288 288 287 287 287 287 287 286 286 286 286 286 286 287 287 288 288 289 289 290 290 290 289 289 289 289 288 288 288 288 288 288 288 288 288 288 288 288 288 288 288 288 288 289 289 289 289
300 299 299 299 299 299 298 298 298 298 298 297 297 297 297 297 296 296 296 295 295 294 294 294 293 293 292 292 291 290 290 289 289 288 288 288 288 287 287 287 287 287 287 287 286 286 286 285 285 285 285 285 286 286 287 287 288 288 289 289 289 288 288 288 288 288 287 287 287 287 287 287 287 287 287 287 288 288 288 288 288 288 288 288 288 288
299 299 298 298 298 298 297 297 297 297 296 296 296 296 296 295 295 294 294 294 293 293 293 292 291 291 291 291 290 289 289 288 288 288 288 288 287 287 287 287 287 287 286 286 286 286 285 285 285 285 285 285 285 285 286 286 287 287 287 287 287 287 287 287 287 287 287 287 287 287 287 287 287 287 287 287 288 288 288 288 288 288 288 288 288 288
298 298 297 297 297 296 296 296 296 295 295 295 295 294 294 294 293 293 292 292 292 292 291 291 290 290 290 289 289 289 288 288 288 288 288 287 287 287 287 287 286 286 286 286 285 285 285 285 285 285 285 284 285 285 285 285 286 286 286 286 286 286 286 286 287 287 287 287 287 287 287 287 287 287 287 288 288 288 288 288 288 288 288 289 289 289
297 297 296 296 295 295 295 295 294 294 294 294 293 293 293 292 292 292 291 291 290 290 290 289 289 289 289 288 288 288 288 288 287 287 287 287 287 287 286 286 286 285 285 285 285 285 285 285 285 284 284 284 285 285 285 285 285 286 286 286 286 286 286 286 287 287 287 287 287 287 287 287 287 287 288 288 288 288 288 288 289 289 289 289 289 289
296 295 295 294 294 294 293 293 293 293 292 292 292 291 291 291 291 291 290 290 289 289 289 288 288 288 288 288 287 287 287 287 287 287 287 287 286 286 286 285 285 285 285 285 285 285 285 285 285 285 285 285 285 285 285 286 286 286 286 286 286 286 287 287 287 287 287 287 287 287 287 287 288 288 288 288 288 288 289 289 289 289 289 289 289 289
295 294 294 293 293 292 292 292 291 291 291 290 290 290 290 290 289 289 289 289 288 288 288 288 287 287 287 287 287 287 287 286 286 286 286 286 286 285 285 285 285 285 284 284 284 285 285 285 285 285 285 285 285 286 286 286 286 286 286 286 287 287 287 287 287 287 287 287 287 288 288 288 288 288 288 288 288 289 289 289 289 289 289 289 289 289
294 293 292 292 291 291 291 291 290 290 290 289 289 289 289 289 288 288 288 288 287 287 287 287 287 286 286 286 286 286 286 286 286 286 285 285 285 285 285 285 285 285 284 284 284 284 285 285 285 285 285 286 286 286 286 286 286 286 287 287 287 287 287 287 287 287 288 288 288 288 288 288 288 288 288 288 289 289 289 289 289 289 289 289 289 289
292 292 291 291 290 290 290 290 289 289 289 289 288 288 288 288 287 287 287 287 287 287 286 286 286 286 286 286 286 285 285 285 285 285 285 285 285 285 285 285 285 284 284 284 284 285 285 285 285 286 286 286 286 286 286 286 287 287 287 287 287 287 287 287 288 288 288 288 288 288 288 288 288 288 288 289 289 289 289 289 289 289 289 289 289 289
291 290 290 289 289 289 289 289 288 288 288 288 288 288 287 287 287 287 287 287 287 286 286 286 286 286 286 286 285 285 285 285 285 285 285 285 285 284 284 284 284 284 284 284 285 285 285 286 286 286 286 286 286 286 287 287 287 287 287 287 287 287 287 287 288 288 288 288 288 288 288 288 288 288 288 289 289 289 289 289 289 289 289 289 289 289
289 288 288 288 288 288 288 287 287 287 287 287 287 287 287 287 286 286 286 286 286 286 286 286 286 286 286 285 285 285 285 285 285 285 285 285 285 284 284 284 284 284 284 285 285 285 286 286 286 286 286 286 286 286 287 287 287 287 287 287 287 287 287 287 288 288 288 288 288 288 288 288 289 289 289 289 289 289 289 289 289 289 289 289 289 289
287 287 287 286 286 286 286 286 286 286 286 286 286 286 286 286 286 286 286 286 286 286 286 286 285 285 285 285 285 284 284 284 284 284 284 284 284 284 283 284 284 285 285 285 285 286 286 286 286 286 286 286 287 287 287 287 287 287 287 287 287 287 287 288 288 288 288 288 288 288 289 289 289 289 289 289 289 289 289 289 289 289 289 289 289 289
286 286 286 286 285 285 285 286 286 286 286 286 286 286 286 286 285 285 285 285 285 285 285 285 284 284 284 284 284 284 284 284 284 284 284 284 284 283 284 284 285 285 285 286 286 286 286 286 286 286 287 287 287 287 287 287 287 287 287 287 287 287 288 288 288 288 288 288 289 289 289 289 289 289 289 289 289 289 289 289 289 289 289 289 289 289
286 285 285 285 285 285 285 285 285 285 285 285 285 285 285 285 285 285 285 284 284 284 284 284 284 284 284 283 283 283 283 283 283 283 283 284 284 284 284 285 285 286 286 286 286 286 286 286 287 287 287 287 287 287 287 287 287 287 287 287 287 288 288 288 288 288 288 288 289 289 289 289 289 289 289 290 290 290 290 290 290 290 290 290 290 290
285 285 285 285 285 285 285 285 285 285 285 284 284 284 284 284 284 284 284 284 284 284 283 283 283 283 283 283 283 283 283 283 283 283 283 284 284 284 285 285 286 286 286 286 286 286 286 286 287 287 287 287 287 287 287 287 287 287 287 287 287 288 288 288 288 288 288 288 289 289 289 289 289 289 289 290 290 290 290 290 290 290 290 290 290 290
285 285 284 284 284 284 284 284 284 284 284 284 284 284 284 284 284 284 284 283 283 283 283 283 283 283 283 283 283 282 283 283 283 283 284 284 285 285 285 286 286 286 286 286 286 286 286 286 287 287 287 287 287 287 287 287 287 287 287 287 287 288 288 288 288 288 288 288 289 289 289 289 289 289 289 290 290 290 290 290 290 290 290 290 290 290
284 284 284 284 284 284 284 284 284 284 284 284 284 284 284 284 284 284 283 283 283 283 283 283 283 283 283 283 283 283 283 283 283 284 284 285 285 285 286 286 286 286 286 286 287 287 286 286 286 287 287 287 287 287 287 287 287 287 287 287 287 287 288 288 288 288 288 288 289 289 289 289 289 289 289 289 289 290 290 290 290 290 290 290 290 290
284 284 284 284 284 284 284 284 284 284 284 283 283 283 283 283 283 283 283 283 283 283 283 283 283 283 283 283 283 283 283 284 284 284 285 285 286 286 286 286 286 287 287 287 287 287 287 287 286 287 287 287 287 287 287 287 287 287 287 287 287 287 288 288 288 288 288 288 289 289 289 289 289 289 289 289 289 289 289 290 290 290 290 290 290 290
284 284 284 284 284 284 284 284 283 283 283 283 283 283 283 283 283 283 283 283 283 283 283 283 282 283 283 283 283 284 284 284 284 285 285 285 286 286 286 286 287 287 287 287 287 287 287 287 287 287 287 287 287 287 287 287 287 287 287 287 287 288 288 288 288 288 288 288 289 289 289 289 289 289 289 289 289 289 289 289 289 289 289 289 290 290
284 284 284 284 284 284 283 283 283 283 283 283 283 283 283 283 283 283 283 283 283 282 282 282 282 282 282 283 284 285 285 285 285 285 285 285 286 286 286 286 287 287 287 287 287 287 287 287 287 287 287 287 287 287 287 287 287 287 287 287 288 288 288 288 288 288 288 288 288 288 289 289 289 289 289 289 289 289 289 289 289 289 289 289 289 290
284 284 284 284 283 283 283 283 283 283 283 282 282 282 282 282 282 283 282 282 282 282 282 282 282 282 283 284 284 285 285 285 285 285 285 285 286 286 286 286 287 287 287 288 288 287 287 287 287 287 287 287 287 287 287 287 287 287 288 288 288 288 288 288 288 288 288 288 288 288 288 289 289 289 289 289 289 289 289 289 289 289 289 289 289 290
284 283 283 283 283 283 283 283 283 283 282 282 282 281 281 282 282 282 282 282 281 281 281 281 282 282 283 284 285 285 285 285 285 285 286 286 286 286 286 286 287 287 287 288 288 288 287 287 287 288 288 288 288 288 288 288 288 288 288 288 288 288 288 288 288 288 288 288 288 288 289 289 289 289 289 289 289 289 289 289 289 289 289 289 290 290
283 283 283 283 283 283 283 283 283 282 282 282 281 281 281 281 281 281 281 281 281 281 281 281 282 282 283 284 285 285 285 285 285 285 286 285 285 286 286 286 287 287 287 288 288 288 288 288 288 288 288 288 288 288 288 288 288 288 288 288 288 288 288 288 288 288 288 288 289 289 289 289 289 289 289 289 289 289 289 289 289 289 289 289 290 290
283 283 283 282 282 282 282 282 282 282 282 282 281 281 281 281 281 281 281 281 281 281 281 282 282 283 284 284 285 285 285 285 285 285 285 285 285 286 286 286 287 287 287 288 288 289 289 288 288 289 289 289 288 288 288 288 288 288 288 288 288 288 288 288 288 288 289 289 289 289 289 289 289 289 289 289 289 289 289 289 289 289 289 289 290 290
282 282 282 282 282 282 282 282 282 282 282 281 281 281 281 281 281 281 281 281 281 282 282 282 283 284 284 284 284 285 285 285 285 285 285 285 286 286 286 286 287 287 287 287 287 288 289 289 289 289 289 288 288 288 288 288 288 288 288 289 289 289 288 288 288 288 288 288 288 288 288 289 289 289 289 289 289 289 289 289 289 289 289 289 290 290
282 282 282 282 282 282 282 282 282 282 281 281 281 281 281 281 281 281 281 281 282 282 283 283 284 284 284 284 284 285 285 285 285 285 285 285 286 286 286 286 287 287 287 287 287 287 287 288 289 289 289 288 288 288 288 288 288 288 288 289 288 288 288 288 288 288 288 288 288 288 288 288 289 289 289 289 289 289 289 289 289 289 289 289 289 290
282 282 282 282 282 281 281 281 281 281 281 281 281 281 281 281 281 281 281 282 282 283 283 284 284 284 284 284 285 285 285 285 285 285 285 285 286 286 286 286 287 287 287 287 287 287 287 288 289 290 289 289 289 289 289 288 288 288 288 288 288 288 288 288 288 288 288 288 288 288 288 288 288 288 289 289 289 289 289 289 289 289 289 289 289 289
282 282 282 282 281 281 281 281 281 281 281 281 281 281 281 281 281 281 282 282 282 283 284 284 284 284 284 285 285 285 285 285 285 285 285 285 285 286 286 286 287 287 287 287 287 288 288 288 289 289 290 290 290 289 289 289 289 289 289 289 289 289 289 288 288 288 288 288 288 288 288 288 288 288 288 288 289 289 289 289 289 289 288 288 288 288
282 282 282 282 282 282 281 281 281 281 281 281 281 281 281 281 281 281 282 282 283 284 284 284 284 285 285 285 285 285 285 285 285 285 285 285 285 286 286 287 287 287 287 287 287 288 288 288 288 289 289 290 290 290 289 289 289 289 289 289 289 289 289 288 288 288 288 288 288 288 288 288 288 288 288 288 288 288 288 288 288 288 288 288 288 288
282 282 282 282 282 282 281 281 281 281 281 281 281 281 281 281 281 282 282 283 284 284 284 285 285 285 285 285 285 285 286 286 285 285 285 285 286 286 286 287 287 287 287 287 287 287 288 288 288 288 289 289 290 290 289 289 289 289 289 289 289 288 288 288 288 288 288 288 288 288 288 288 287 287 287 287 287 287 288 288 288 288 288 288 288 288
282 282 282 282 282 282 282 281 281 281 281 281 281 281 281 282 282 283 283 284 284 285 285 285 285 285 285 285 285 285 286 286 286 286 286 286 286 286 286 287 287 287 287 287 287 287 287 287 288 288 288 289 289 290 290 289 289 289 289 289 289 289 288 288 288 288 288 288 288 288 288 287 287 287 287 287 287 287 287 287 287 287 288 288 288 288
282 282 282 282 282 282 282 281 281 281 281 281 281 281 282 282 283 284 284 285 285 285 285 285 285 285 285 285 285 286 286 286 286 286 286 286 286 286 286 286 287 286 286 286 286 286 286 286 287 288 288 289 289 289 289 289 289 289 289 289 289 288 288 288 288 288 288 288 287 287 287 287 287 287 287 286 286 286 286 287 287 287 287 287 287 287
282 282 282 282 282 282 282 282 281 281 281 281 281 282 282 283 284 284 285 285 285 285 285 285 285 285 285 285 285 285 286 286 286 286 286 286 286 286 286 286 286 286 286 286 286 286 286 286 286 287 287 288 289 289 288 289 289 289 289 289 289 288 288 288 287 287 287 287 287 287 287 286 286 286 286 286 286 286 286 286 286 286 286 286 286 287
282 282 282 282 282 282 282 282 281 281 281 281 282 282 283 284 284 285 285 285 285 285 285 285 285 285 285 285 285 285 285 286 286 286 286 286 286 286 286 286 286 286 286 286 286 287 287 286 286 287 287 287 288 289 288 288 288 288 288 288 288 288 288 288 287 287 287 287 287 287 286 286 286 286 286 286 286 286 286 286 286 286 286 286 286 286
282 282 282 282 282 282 282 281 281 281 281 282 282 283 283 284 284 285 285 285 285 285 285 285 285 285 285 285 285 285 285 285 286 286 286 286 286 286 286 286 287 287 286 286 286 287 287 286 286 287 287 287 287 288 288 288 288 288 287 287 288 288 288 287 287 287 287 286 286 286 286 286 286 286 286 286 286 286 286 286 286 286 286 286 286 286
282 282 282 282 282 282 282 281 281 281 281 282 282 283 284 284 285 285 285 285 285 285 285 285 285 285 285 285 285 285 285 285 285 285 285 286 286 286 286 286 286 286 286 286 286 286 286 286 286 286 287 287 287 287 287 288 288 287 287 287 287 287 287 288 287 287 286 286 286 286 286 286 286 286 286 286 286 286 286 286 286 286 286 286 286 286
282 282 282 282 282 281 281 281 281 281 281 282 283 283 284 284 285 285 285 285 285 285 285 285 285 285 285 285 285 285 285 285 285 285 285 285 285 286 286 286 286 286 286 286 286 286 286 286 286 287 287 286 286 286 287 287 287 287 287 287 287 287 287 287 287 287 286 286 286 286 286 286 286 286 286 286 286 286 286 286 286 286 286 286 286 286
282 282 282 281 281 281 281 281 281 281 282 282 283 284 284 284 285 285 285 285 285 285 285 285 285 285 285 285 286 286 286 285 285 285 285 285 286 286 286 286 285 286 286 285 285 285 286 286 286 286 286 286 285 286 286 287 287 287 287 287 286 286 287 287 287 287 287 286 286 286 286 286 286 286 286 287 287 287 287 287 287 287 286 286 286 286
282 282 282 281 281 281 281 281 281 282 282 283 283 284 284 284 285 285 285 285 285 285 285 285 285 285 285 285 286 286 286 286 286 285 285 285 285 285 285 285 285 285 285 285 285 285 285 285 285 285 285 285 285 285 286 286 287 287 287 287 286 286 286 287 287 287 287 286 286 286 286 286 286 286 286 287 287 287 287 287 287 287 287 287 287 287
282 282 282 281 281 281 281 281 281 282 283 283 284 284 284 284 284 284 284 284 284 284 284 285 285 285 285 285 286 286 286 286 286 286 285 285 284 284 284 284 284 284 284 284 284 285 285 285 285 285 285 285 285 285 286 286 286 286 287 286 286 286 286 287 287 286 286 286 286 286 286 286 286 286 286 287 287 287 287 287 287 287 287 287 287 286
282 282 281 281 281 281 281 281 282 282 283 284 284 284 284 284 284 284 284 284 284 284 284 284 284 285 285 285 285 286 286 286 286 286 285 285 285 284 284 284 284 284 283 284 284 284 284 284 284 284 284 284 284 285 286 286 286 286 286 286 286 286 286 287 287 286 286 286 286 286 286 286 286 286 286 286 286 287 287 287 286 286 286 286 286 286
282 282 282 281 281 281 281 282 282 283 283 284 284 284 284 284 284 284 284 284 284 284 284 284 284 285 285 285 285 285 286 286 286 286 286 285 285 285 284 284 284 283 283 283 283 283 284 284 284 284 284 284 284 285 285 286 286 286 286 286 286 286 286 286 286 286 286 286 286 286 286 285 285 285 285 286 286 286 286 286 286 286 286 286 286 286
282 282 282 282 282 282 282 282 283 283 284 284 284 284 284 284 284 284 284 284 284 284 284 284 284 285 285 285 285 285 285 285 285 285 285 285 285 285 285 285 285 284 284 284 284 284 284 284 284 284 284 284 284 285 285 285 285 285 285 285 285 286 286 286 286 286 286 286 285 285 285 285 285 285 284 284 285 286 286 286 286 286 286 286 286 286
282 282 282 282 282 282 282 283 283 283 284 284 284 284 284 284 284 284 284 284 284 284 284 284 284 285 285 285 285 285 285 285 285 286 286 285 285 285 285 285 285 285 285 285 285 285 285 285 285 285 285 285 285 285 285 285 285 285 285 285 285 285 285 285 286 286 285 285 285 285 285 285 285 285 284 284 284 285 286 286 286 286 286 286 286 285
282 282 282 282 282 283 283 283 283 284 284 284 284 284 284 284 284 284 284 284 284 284 284 284 284 285 285 285 285 285 285 285 286 286 286 285 285 285 285 285 285 285 285 284 284 284 284 284 284 284 285 285 285 284 284 284 285 285 285 285 285 285 285 285 285 285 285 285 285 285 285 285 284 284 284 284 284 284 285 285 286 286 286 286 285 285
Wind_Speed
17 18 18 17 16 14 13 13 13 12 12 11 10 9 9 10 10 10 11 11 13 13 14 15 16 17 18 19 20 21 23 24 25 26 26 27 26 26 26 25 23 22 21 20 19 19 20 20 20 20 20 19 18 17 16 15 15 14 14 13 13 13 13 13 13 13 13 13 13 13 13 14 15 15 16 17 18 19 19 20 20 21 21 21 21 21
17 16 16 16 14 13 11 11 11 10 10 10 10 9 9 9 9 10 10 11 12 13 14 15 16 17 18 19 20 21 22 23 23 24 23 23 22 21 20 19 18 17 16 16 16 17 17 18 17 17 17 16 15 15 14 13 13 13 13 13 13 13 13 13 14 14 15 15 15 15 16 17 18 19 19 20 20 21 21 21 21 21 21 21 21 21
15 15 14 13 13 12 10 10 10 9 9 9 9 9 9 9 9 10 10 10 11 11 11 12 13 14 15 16 16 17 18 18 18 18 18 17 16 16 15 15 15 15 15 15 15 16 16 15 15 15 15 14 14 13 13 12 12 13 13 13 13 13 13 13 13 13 14 14 14 15 16 17 18 19 20 20 20 20 20 20 20 19 19 19 19 19
13 12 12 11 10 10 9 8 8 8 8 8 8 8 8 9 9 9 9 9 9 9 9 9 10 10 11 12 12 13 13 13 13 13 13 13 13 13 13 14 14 15 15 15 15 15 15 15 15 15 14 14 13 13 12 12 12 12 12 13 13 12 12 12 12 12 12 12 13 13 14 15 16 16 17 17 17 16 15 15 15 15 15 15 15 15
10 10 10 9 8 7 7 7 7 6 6 6 7 7 8 8 8 8 8 8 8 8 8 8 8 8 9 9 10 10 11 11 11 12 12 12 12 13 13 14 14 15 15 15 15 15 15 15 15 14 14 13 12 12 12 11 11 11 11 12 13 13 14 14 14 14 13 13 13 13 14 14 14 14 14 15 14 14 13 13 13 13 14 14 14 14
9 8 8 8 7 6 6 6 6 6 6 6 6 6 7 7 7 8 8 8 8 8 8 8 8 8 8 9 9 10 10 11 11 12 12 12 13 13 14 14 15 15 15 15 16 16 16 16 15 15 14 13 13 13 13 12 12 12 13 14 15 15 16 16 15 15 15 14 14 14 14 14 14 14 14 14 14 14 14 14 14 14 14 14 14 14
8 8 8 7 6 6 6 6 6 6 6 6 6 6 7 7 7 7 7 8 8 8 9 9 9 9 9 9 9 9 10 10 11 11 11 12 12 13 13 14 15 15 16 16 16 17 17 17 17 16 16 16 15 15 15 15 15 15 16 16 17 17 17 16 16 15 15 15 14 14 14 14 14 14 14 14 14 14 14 14 14 14 14 14 14 14
7 7 7 7 7 7 7 6 6 6 6 6 6 6 7 7 7 7 7 8 9 9 9 9 9 9 9 9 9 9 9 9 10 10 11 11 12 13 14 15 15 16 17 17 18 18 18 19 19 19 18 18 17 17 17 17 17 18 18 18 18 17 16 16 15 15 14 14 14 14 13 13 13 13 13 13 13 13 13 13 13 13 13 13 13 13
7 7 7 7 7 7 7 7 6 6 6 6 6 6 7 7 8 8 8 8 9 9 9 9 10 10 10 9 9 9 9 10 10 10 11 12 13 14 15 16 17 17 18 19 19 19 19 20 20 20 20 19 19 19 19 19 19 19 18 18 17 16 15 15 14 14 13 13 13 12 12 12 12 13 13 12 12 12 12 12 12 13 12 12 12 12
8 8 8 8 8 7 7 6 7 7 6 6 7 7 7 8 8 8 9 9 9 9 10 10 10 10 10 10 10 10 10 10 11 12 13 13 15 16 16 17 18 19 20 20 20 20 20 20 20 20 20 20 20 19 19 19 18 18 17 16 15 15 14 14 13 13 12 12 12 12 12 12 12 12 12 12 12 12 12 13 13 13 13 12 12 12
9 9 8 8 8 9 8 7 7 7 7 7 8 8 9 9 9 9 9 9 9 9 9 9 9 9 9 10 10 10 10 11 12 13 14 15 16 17 18 19 19 20 21 22 22 21 21 20 20 19 19 19 19 18 18 17 16 15 15 14 14 13 13 13 12 12 11 11 11 11 11 11 12 12 12 12 12 12 12 13 13 13 13 13 13 13
9 9 9 8 8 8 8 8 8 8 8 8 8 8 8 8 8 8 9 9 9 9 8 9 9 9 10 10 11 12 12 13 14 15 16 17 17 18 18 19 20 21 22 22 23 22 21 20 19 19 18 17 16 16 15 14 14 13 13 13 12 12 12 12 11 11 11 11 11 11 11 11 12 12 12 12 12 12 13 13 14 14 14 14 14 14
10 9 9 9 8 8 8 8 8 8 8 8 7 7 7 8 8 8 9 9 9 9 9 9 10 10 11 12 13 14 15 15 16 17 17 17 18 18 18 19 19 20 21 22 22 22 21 20 19 17 16 15 14 13 13 12 12 12 11 12 11 11 11 11 10 10 10 10 11 11 11 11 12 12 12 12 12 13 14 14 15 15 14 14 14 13
10 10 9 9 8 8 8 8 8 8 8 8 8 8 8 9 9 9 9 9 9 10 10 11 11 12 13 13 14 15 16 17 17 17 17 18 17 18 18 19 20 20 21 21 21 21 20 19 17 16 14 13 12 12 11 11 11 11 11 11 11 11 10 10 10 10 10 10 10 11 11 12 12 13 13 13 13 14 14 15 15 14 14 14 13 13
10 10 9 9 8 8 9 9 8 8 8 9 9 9 9 9 9 9 9 9 10 11 11 12 13 14 14 15 15 15 16 17 17 18 18 17 17 17 18 19 19 20 20 19 19 19 18 17 16 14 13 12 11 11 11 11 11 11 11 11 10 10 10 10 10 10 10 10 11 11 12 12 13 13 14 14 14 14 14 15 14 14 14 13 13 13
10 10 10 10 9 9 10 10 9 9 10 10 10 10 10 9 10 10 10 11 12 13 14 14 15 15 15 15 15 15 16 16 17 18 18 18 17 16 17 18 18 18 18 17 17 17 16 15 14 13 13 12 11 11 11 11 11 10 10 10 10 10 10 10 10 10 10 11 11 12 13 13 14 14 14 15 15 15 15 15 14 14 14 14 13 13
10 10 10 10 10 10 11 11 11 11 11 11 11 11 11 11 11 12 13 13 14 15 16 16 17 17 17 16 16 16 16 17 18 19 19 18 16 15 16 17 17 16 15 15 15 15 15 14 14 13 12 12 11 11 11 11 11 10 10 10 10 10 10 10 10 11 11 12 12 13 14 14 14 15 15 15 15 15 15 15 15 14 14 14 14 14
10 10 10 11 11 11 11 11 11 11 12 12 12 12 12 13 14 14 15 16 16 16 17 17 18 19 19 19 18 18 17 18 19 19 19 18 16 14 14 15 15 14 14 13 14 14 14 14 14 13 13 12 12 12 11 11 11 10 10 10 10 10 10 11 11 11 12 13 13 14 14 15 15 15 15 15 15 15 15 15 15 15 15 15 15 15
11 11 11 11 11 11 11 11 11 11 11 12 12 13 14 15 16 16 16 17 17 17 18 18 19 20 20 20 20 19 19 19 19 20 19 18 15 12 12 12 13 12 12 12 13 13 13 13 13 13 13 12 12 12 11 11 10 10 10 10 10 10 11 11 12 12 13 13 14 15 15 16 16 16 16 16 16 16 16 16 16 16 16 16 16 16
12 11 11 11 12 12 11 11 11 12 12 14 14 15 15 16 17 17 18 18 18 18 18 18 19 19 20 20 20 19 18 19 19 20 19 17 14 11 11 11 11 11 11 11 12 13 13 13 13 13 13 12 12 12 11 11 11 10 10 10 11 11 11 12 12 13 14 14 15 16 16 16 17 17 17 17 17 17 17 17 17 17 17 17 17 17
13 12 12 12 12 12 12 12 13 13 14 14 14 15 15 16 17 17 17 17 17 17 17 17 18 18 18 18 18 18 18 18 18 19 18 16 13 11 10 11 11 11 11 11 12 13 13 13 13 13 13 13 12 12 11 11 11 11 11 11 11 12 12 13 14 14 15 16 16 17 17 17 17 17 18 18 18 18 18 18 18 18 18 19 19 19
14 13 13 12 12 12 13 13 14 14 14 14 15 15 16 16 16 16 16 16 16 16 16 17 17 16 16 16 16 16 16 16 17 17 17 15 12 10 10 11 11 11 11 11 12 12 13 13 13 13 13 13 13 12 12 11 11 11 11 12 12 13 13 14 15 16 17 17 18 18 18 18 18 18 19 19 19 19 19 19 19 20 20 20 20 20
14 13 13 13 13 13 14 14 14 14 15 15 15 16 16 16 16 16 16 16 16 16 16 16 15 15 15 15 15 14 14 14 15 15 15 15 13 11 11 11 12 12 12 11 12 12 13 13 13 14 14 14 13 13 12 12 12 12 12 12 13 14 15 16 17 17 18 19 19 19 19 19 19 19 20 20 20 20 20 20 21 21 21 21 21 21
14 13 13 13 13 14 15 15 15 15 16 16 16 17 17 17 17 17 17 16 16 16 16 15 15 15 14 13 13 12 12 12 13 14 15 15 14 13 12 12 13 13 12 11 11 11 12 12 13 14 14 14 13 13 12 12 12 12 13 14 14 15 16 17 18 19 19 19 20 20 20 20 20 20 21 21 21 21 22 22 22 22 22 22 22 22
13 13 13 13 13 14 15 15 15 16 17 17 17 17 18 18 18 18 17 16 16 16 17 17 17 16 15 14 12 11 11 11 12 13 14 15 15 14 13 13 13 13 12 11 10 11 11 11 12 13 14 14 13 13 12 12 13 13 14 15 16 17 18 18 19 19 19 20 20 20 20 21 21 22 22 22 22 23 23 23 23 23 23 23 23 23
14 13 13 13 14 14 15 15 15 15 16 16 17 17 18 18 18 18 17 17 17 17 18 18 18 17 15 14 13 12 11 11 12 13 14 15 15 14 14 14 14 14 13 11 10 10 10 10 11 13 14 14 14 13 13 13 14 15 16 17 17 18 18 19 19 19 19 20 20 21 21 22 22 23 23 23 23 24 24 24 24 24 24 24 24 24
15 15 15 15 16 16 16 15 15 14 14 14 15 16 17 18 18 18 17 17 17 17 18 18 18 17 15 14 14 13 12 12 13 13 14 14 14 14 14 14 14 14 13 11 9 9 10 10 11 12 13 14 14 14 14 15 15 16 16 17 17 17 17 18 18 19 19 20 21 21 22 23 23 23 24 24 24 24 25 25 25 25 25 25 25 25
16 16 16 17 17 17 17 16 15 14 13 12 13 14 16 17 18 18 17 17 16 17 17 17 17 16 16 15 15 14 13 13 13 13 14 14 14 15 15 15 14 14 13 11 9 9 10 11 12 12 13 14 14 14 14 14 14 15 15 15 15 16 16 17 18 19 20 20 21 22 22 23 23 24 24 24 24 25 25 25 25 25 25 26 25 25
16 16 17 17 18 18 18 17 16 14 13 12 12 13 14 15 16 16 16 15 15 16 16 16 15 16 16 16 15 14 14 13 13 13 14 14 15 15 15 15 15 14 14 12 10 9 9 10 11 12 12 12 13 12 12 12 12 12 13 14 14 15 16 17 18 19 20 21 21 22 22 23 23 23 24 24 24 25 25 25 25 26 26 26 26 26
16 16 16 17 17 18 18 17 16 15 14 13 12 12 13 13 14 14 14 14 14 14 14 14 14 15 15 16 16 16 15 13 13 13 14 15 16 17 16 15 15 14 14 13 12 10 9 9 9 10 9 9 9 9 9 10 10 11 12 13 15 16 17 17 18 19 19 20 20 21 21 22 22 23 23 24 24 24 25 25 26 26 27 27 27 27
14 14 14 15 16 17 17 17 16 15 14 13 13 13 13 13 13 13 14 14 14 13 13 13 13 14 14 16 17 18 17 14 13 14 15 16 17 17 16 16 15 14 13 13 14 13 11 8 8 7 7 7 7 8 8 10 11 12 14 14 15 15 16 17 17 17 18 19 19 20 20 21 22 22 23 23 24 24 25 25 26 27 27 28 28 27
12 12 13 14 15 16 16 16 16 15 14 14 13 13 13 13 13 13 13 13 13 13 13 13 13 14 14 15 17 18 18 16 15 15 15 17 17 17 17 17 16 15 13 13 14 13 12 11 10 9 8 8 9 9 10 11 13 14 14 14 14 14 14 15 15 16 16 17 17 18 19 20 20 21 22 23 23 24 25 25 26 27 28 28 28 28
11 12 13 14 15 15 16 15 15 15 14 14 14 14 14 13 13 13 13 12 12 12 13 13 14 14 15 15 16 17 18 17 16 16 16 17 18 18 17 17 17 16 14 14 14 14 14 16 15 14 12 12 11 11 11 11 12 12 12 12 12 12 12 13 13 14 14 15 15 16 17 18 19 19 20 21 22 23 24 24 25 26 27 28 28 29
12 12 13 14 14 15 15 15 14 14 14 14 14 14 14 14 13 13 13 12 12 12 13 13 14 15 15 16 17 18 18 17 16 16 16 17 18 19 18 18 18 17 16 15 15 15 16 17 17 17 16 15 13 12 11 10 10 10 10 10 10 11 11 12 12 13 13 14 14 15 15 16 17 18 19 20 21 22 23 23 24 25 26 28 28 29
12 13 13 14 14 14 14 14 14 14 14 14 14 14 14 14 13 13 12 12 12 12 13 13 14 15 16 16 17 18 18 17 16 16 16 17 18 19 19 19 18 17 17 17 17 17 17 18 18 19 19 18 16 13 12 11 10 10 10 10 11 11 12 12 13 13 14 14 14 14 15 16 17 18 18 19 20 21 22 23 23 24 26 27 28 29
13 13 13 13 14 14 14 14 13 13 13 13 14 14 14 14 13 13 12 12 12 12 13 13 14 15 16 16 17 18 18 17 16 16 16 17 18 18 19 19 18 18 18 18 18 18 19 19 19 19 19 20 18 16 14 12 12 11 11 11 12 12 13 13 14 14 15 15 15 15 15 16 16 17 18 19 19 20 21 22 23 24 25 26 28 29
13 13 13 13 13 13 13 13 13 13 13 13 14 14 13 13 13 12 12 12 12 12 13 14 15 15 16 17 17 18 18 17 17 17 17 17 18 18 19 20 19 19 19 19 19 19 20 20 20 20 20 20 20 19 17 15 14 14 13 13 13 14 14 15 15 15 16 16 16 16 16 16 16 17 17 17 18 19 20 21 22 23 25 26 27 28
12 12 12 12 13 13 13 13 13 13 13 13 13 13 13 13 12 12 12 12 12 13 13 14 15 16 16 17 17 18 18 18 18 18 18 18 18 19 20 20 20 19 19 19 19 19 20 21 21 21 21 20 20 19 19 18 17 16 16 16 16 16 16 16 16 17 17 17 17 17 17 16 16 16 16 17 17 18 19 20 21 22 23 24 26 27
11 11 11 12 12 12 12 12 12 13 13 13 13 12 12 12 12 12 12 12 13 13 14 15 15 16 17 17 18 18 18 18 18 18 18 19 19 19 19 20 20 20 19 19 19 19 19 20 21 21 21 21 21 20 19 18 18 18 18 18 18 17 17 17 17 17 17 17 17 17 16 16 16 16 16 16 17 17 18 18 19 20 21 22 24 25
11 10 11 11 12 12 12 12 12 12 12 12 12 12 12 12 12 12 12 13 13 14 15 15 16 17 17 17 18 18 18 18 18 18 18 19 19 19 19 19 19 19 19 19 19 19 19 20 20 20 21 21 21 21 20 19 19 19 19 20 20 20 19 18 18 18 18 17 17 17 16 16 16 16 16 16 17 17 18 18 19 19 20 21 22 23
10 10 11 11 12 12 12 12 12 12 12 12 11 11 11 11 11 12 12 13 13 14 15 16 16 17 17 18 18 18 18 18 19 19 19 19 19 19 19 19 19 19 19 19 19 19 19 19 20 20 20 20 21 21 20 20 19 19 20 21 21 21 20 20 19 19 18 18 17 17 17 16 16 16 16 17 17 17 18 18 19 20 20 21 22 22
10 10 11 11 12 12 12 12 12 12 11 11 11 11 11 11 11 11 12 12 13 14 15 15 16 17 17 18 18 18 18 19 19 19 19 19 19 19 19 19 19 19 19 19 19 19 19 19 19 20 20 20 20 21 21 21 19 19 19 20 21 21 21 20 19 19 19 18 18 17 17 17 17 18 18 18 18 18 18 19 19 20 20 20 21 22
10 10 10 11 11 11 11 11 11 11 11 10 10 10 10 11 11 11 12 12 13 13 14 15 16 17 17 17 17 17 16 16 16 17 17 17 18 18 18 19 19 19 18 18 19 19 19 19 19 20 19 20 20 21 22 22 20 20 19 20 21 22 22 21 20 19 19 19 18 18 18 18 19 19 19 19 19 19 19 19 19 19 19 19 19 19
10 10 10 10 10 11 11 11 11 10 10 10 10 10 10 10 11 12 12 13 13 14 15 16 17 18 18 18 17 16 14 14 13 13 14 15 15 16 16 17 17 17 17 17 18 18 19 19 20 19 19 20 21 22 22 22 21 20 20 20 20 21 21 21 21 20 20 19 19 19 19 19 20 20 21 20 20 20 19 19 18 18 17 17 17 17
10 9 10 10 10 10 10 10 10 10 9 9 9 9 10 10 11 12 12 13 14 15 16 17 18 19 18 18 16 15 13 12 11 10 11 12 12 13 14 14 15 16 16 17 17 18 18 19 19 19 19 20 21 22 22 22 22 21 21 20 20 20 20 21 21 21 21 20 20 19 20 20 21 22 22 22 22 21 21 20 20 19 18 17 17 17
9 9 9 9 10 10 10 10 9 9 9 9 9 9 9 10 11 12 13 14 15 16 17 18 18 18 18 16 15 13 11 10 9 9 9 9 10 12 13 13 14 14 15 16 16 17 18 18 18 19 19 20 21 22 22 22 22 22 21 20 20 20 20 21 21 21 21 21 21 21 21 22 23 24 24 24 23 22 22 21 21 21 20 19 18 18
9 9 9 9 9 9 9 9 9 9 9 8 9 9 9 10 11 12 13 14 15 16 17 18 18 17 16 15 13 12 11 10 10 10 10 10 10 11 12 13 13 14 15 15 16 16 17 17 18 18 19 20 22 23 22 22 21 21 21 21 20 21 21 21 21 21 22 22 22 22 22 23 24 25 25 25 25 24 23 23 22 21 21 20 19 19
9 9 8 9 9 9 9 9 9 9 9 9 9 9 9 10 11 12 13 14 15 16 17 17 16 16 15 13 13 12 11 11 11 12 12 12 12 12 12 13 13 14 14 15 15 16 16 17 17 18 19 20 21 22 23 22 21 20 20 20 21 22 22 23 22 22 22 22 23 23 24 25 26 26 27 27 26 26 25 24 23 22 22 21 20 19
9 9 9 9 9 9 9 9 9 9 9 9 9 9 9 10 11 12 13 14 15 15 15 15 15 14 14 13 12 12 12 13 13 14 14 14 15 15 15 15 15 15 15 15 15 16 17 18 18 19 20 20 21 22 22 21 20 20 20 20 21 22 23 24 24 23 23 24 24 25 25 26 27 27 27 28 28 28 27 26 25 24 23 21 20 19
9 9 9 9 9 9 9 9 9 9 9 9 9 10 10 10 11 12 13 14 14 14 13 13 13 14 14 13 13 13 14 14 14 15 15 15 16 16 16 16 16 17 17 17 17 18 19 20 21 21 21 20 20 20 20 21 20 20 21 21 22 23 24 24 25 25 25 25 26 26 27 27 27 27 27 28 28 29 28 27 26 25 24 22 21 20
9 9 9 10 9 9 9 9 9 9 10 10 10 10 10 11 12 12 13 13 13 13 12 12 13 13 14 14 14 14 15 15 16 16 16 16 17 17 17 17 17 17 17 18 18 19 20 21 22 22 22 20 19 19 18 19 20 21 22 22 23 23 24 25 26 26 27 27 28 28 29 29 28 27 27 27 28 29 29 28 27 26 25 23 22 21
Wind_Direction
306 307 307 308 310 311 311 313 314 315 313 311 311 312 313 311 307 302 298 291 285 281 276 273 272 271 270 269 269 269 268 269 270 272 275 276 277 277 278 278 278 277 277 275 274 272 272 274 275 276 278 278 278 279 280 280 281 281 280 280 279 278 278 276 274 271 268 266 262 258 253 249 247 247 246 245 246 246 246 247 248 248 249 249 249 250
305 306 306 308 310 312 311 312 312 311 309 309 309 309 309 308 305 301 295 290 286 283 281 278 275 273 271 270 270 270 270 270 272 273 274 274 274 274 274 273 273 273 274 274 273 274 275 277 278 279 280 281 282 284 285 286 286 285 283 280 278 276 273 271 268 265 261 260 256 252 249 246 244 243 244 244 246 248 249 251 252 253 255 255 255 256
306 307 308 312 315 318 318 317 315 313 311 312 314 315 314 312 311 309 305 301 297 293 289 286 282 279 277 276 275 274 273 273 273 272 271 270 269 269 268 269 270 271 272 273 275 277 279 281 283 284 284 285 286 285 284 282 281 280 278 276 275 274 271 269 267 266 264 262 260 257 255 254 252 250 250 251 252 254 257 258 259 260 261 260 260 260
311 313 316 321 326 328 328 327 325 322 323 324 325 324 322 320 317 315 313 310 305 299 294 289 285 282 280 279 278 277 275 274 272 270 268 266 264 264 264 266 268 269 271 273 276 279 281 283 285 286 286 287 286 284 282 280 279 278 278 277 274 270 267 266 265 265 264 264 263 263 263 263 262 260 259 258 259 260 263 263 263 263 262 261 261 261
321 325 328 333 338 340 338 336 334 333 334 333 331 328 325 321 318 315 313 309 304 299 293 288 284 281 279 278 277 276 275 274 272 269 266 264 262 261 263 266 268 271 273 276 278 281 283 284 285 284 284 284 283 281 279 278 277 274 271 267 264 262 261 261 262 263 264 266 267 267 267 268 268 267 265 262 261 260 260 259 259 259 258 259 260 261
331 334 335 340 345 346 343 340 338 338 336 332 328 325 320 316 313 311 309 306 303 300 296 292 289 285 283 281 279 277 276 274 271 269 267 265 265 265 266 269 271 273 276 278 280 282 283 283 282 280 277 275 272 271 270 269 266 261 257 256 257 259 261 262 265 267 269 271 272 273 273 273 273 272 270 267 263 261 260 257 257 257 257 259 260 261
336 337 338 343 344 343 341 338 335 333 330 323 318 314 311 308 305 304 302 301 300 298 297 294 292 289 287 285 282 279 276 272 269 267 265 265 266 267 270 271 273 276 278 280 282 283 283 282 280 278 275 271 267 264 262 262 260 257 255 255 258 261 266 269 271 274 275 276 277 277 277 277 277 276 274 272 270 268 266 264 263 262 261 261 261 262
340 338 339 342 341 338 335 331 328 325 322 314 309 306 304 300 299 296 295 294 294 293 293 292 291 289 288 287 285 281 278 274 271 268 268 268 269 271 274 276 278 280 282 283 283 283 283 282 281 279 277 274 269 265 261 260 258 258 258 260 263 267 271 275 277 278 278 278 277 276 276 276 275 275 274 273 272 272 271 270 269 268 266 265 264 263
339 338 334 333 333 332 328 322 319 318 316 308 302 299 297 296 295 293 292 290 289 289 289 289 289 289 289 289 288 286 283 280 278 277 277 277 278 278 280 282 283 285 285 285 284 284 283 283 282 281 279 276 271 267 264 262 261 261 262 264 268 271 275 277 277 277 276 274 273 272 271 271 271 271 272 272 273 273 274 273 273 272 271 270 269 267
333 332 330 327 326 324 319 312 308 307 306 301 293 289 288 288 289 289 288 286 287 287 287 286 286 287 289 288 288 287 286 285 284 284 284 284 284 285 286 287 288 288 288 287 286 286 285 284 283 282 280 277 273 270 269 268 267 267 268 270 272 274 275 276 275 274 272 270 269 269 268 269 269 270 271 273 274 276 278 278 278 277 277 275 273 270
328 327 325 321 319 318 315 304 298 297 298 295 291 287 284 280 280 282 280 279 281 284 285 284 284 286 289 291 289 287 286 285 285 285 285 286 287 288 289 290 291 291 291 290 289 288 287 286 284 282 280 278 276 274 273 272 272 272 272 273 274 275 275 275 274 273 271 270 269 269 269 269 270 271 272 274 276 279 280 281 280 279 278 276 274 272
324 324 322 317 312 310 308 303 298 296 294 290 285 282 280 278 278 277 277 278 280 283 285 286 285 285 286 289 288 286 284 283 283 283 284 284 285 286 287 288 290 290 290 290 291 290 290 288 286 284 281 279 278 277 276 275 274 273 274 274 274 275 275 274 274 273 272 272 271 271 271 272 273 274 274 276 277 277 277 276 276 275 275 275 274 274
322 323 322 318 311 303 298 296 295 293 291 284 278 274 276 280 279 277 278 280 283 286 287 288 288 287 284 283 284 285 285 284 283 282 282 282 283 284 285 286 286 287 287 288 289 290 290 290 288 286 283 281 279 277 276 275 274 274 274 274 274 274 274 274 273 272 272 271 271 272 272 274 275 275 275 276 276 275 274 274 274 275 275 276 276 276
322 322 319 313 307 302 297 294 290 286 283 280 277 276 276 277 277 278 281 283 284 284 285 287 288 289 288 286 285 285 286 286 285 284 283 284 285 287 287 287 286 285 286 286 288 288 289 289 289 287 285 282 280 278 276 275 274 273 273 272 272 272 272 271 271 271 271 271 271 272 273 274 276 276 276 275 275 274 274 275 276 277 278 279 279 278
320 319 316 309 303 299 298 296 291 285 281 281 279 275 272 273 276 280 282 285 286 285 285 285 286 288 290 290 289 288 287 287 286 286 285 285 287 290 291 289 287 286 285 286 286 286 287 288 288 287 286 284 281 279 277 276 274 273 272 271 270 270 269 269 269 270 271 272 273 274 275 276 276 276 276 276 275 275 275 276 277 279 279 279 280 279
320 319 315 310 305 301 299 297 293 288 285 284 282 279 278 280 282 284 285 285 285 287 287 288 288 290 291 291 291 290 289 289 288 287 286 286 289 292 292 290 288 286 286 286 285 285 286 287 287 287 286 285 283 281 279 277 275 273 271 270 270 269 269 269 270 271 272 274 276 277 278 278 278 278 278 277 277 277 277 278 278 279 279 279 280 280
320 317 314 310 305 301 299 297 294 290 287 286 284 283 282 283 284 285 285 284 285 288 289 291 293 295 296 295 294 293 292 291 290 289 288 289 293 295 293 290 288 287 286 285 285 284 285 285 286 286 286 285 284 281 279 278 275 273 272 271 271 271 271 271 272 273 275 277 278 279 280 280 281 280 280 279 279 279 279 279 280 280 280 280 280 280
318 316 313 309 305 301 298 295 292 290 288 286 285 284 282 281 282 283 285 286 288 291 293 295 296 297 298 299 299 297 297 296 294 293 292 293 297 298 293 289 287 286 286 285 284 283 284 284 284 285 285 284 283 281 279 277 275 274 272 272 271 271 272 272 274 276 277 278 280 281 281 282 282 282 282 282 281 281 281 281 282 282 282 282 281 281
317 315 313 309 306 302 298 294 292 290 289 287 286 287 288 287 287 289 291 292 294 296 298 298 299 299 300 300 300 300 302 300 298 297 296 297 300 300 293 288 286 286 286 285 283 283 283 283 284 284 284 283 281 279 278 277 275 274 273 272 271 272 272 273 275 276 278 279 280 281 282 282 283 283 284 284 284 284 284 283 283 283 283 283 283 282
317 315 312 309 307 304 300 296 292 290 288 287 289 291 292 293 295 296 297 299 300 301 301 300 300 301 302 302 303 304 304 303 301 299 299 300 302 301 293 287 285 285 285 283 282 282 282 283 283 283 283 281 280 279 278 277 275 274 273 272 272 272 272 274 275 277 278 280 281 281 282 283 284 285 286 286 286 286 286 285 285 284 284 284 284 284
317 315 310 308 306 303 300 296 292 289 290 292 295 296 295 296 297 298 300 302 303 303 303 303 303 303 305 306 307 307 306 304 303 301 300 301 302 300 294 288 285 284 283 281 281 281 282 282 283 282 282 280 279 278 277 276 275 274 272 272 271 272 273 274 276 278 279 280 281 282 283 284 285 286 287 288 288 287 287 286 286 285 285 284 284 284
316 314 311 310 307 303 299 296 294 294 296 298 298 297 297 299 301 302 304 305 306 306 307 307 307 308 308 309 309 309 307 305 303 303 302 301 301 301 296 290 287 285 283 280 279 279 280 281 281 280 279 278 278 277 276 275 274 273 272 271 272 272 274 275 277 278 279 280 281 282 283 284 285 286 287 287 287 286 286 285 284 284 283 283 283 283
314 313 311 309 307 304 301 300 300 300 300 301 302 301 302 304 305 306 307 307 308 308 309 309 310 310 310 310 310 309 308 306 304 303 303 302 302 302 298 293 289 287 285 282 280 278 277 277 277 276 275 275 275 275 274 274 273 272 272 272 273 273 274 275 276 277 278 279 281 282 283 283 284 284 285 285 284 284 283 283 282 282 282 281 281 281
310 309 308 306 304 303 303 303 304 303 303 304 305 305 307 307 306 306 307 308 310 312 313 312 311 311 312 312 312 312 311 309 307 305 304 303 302 303 301 296 292 289 286 284 282 279 276 273 272 271 272 273 273 273 273 273 273 273 272 272 272 273 273 274 275 276 277 278 279 280 281 281 282 282 282 282 282 282 281 281 280 280 280 280 280 280
304 305 304 302 301 300 301 302 303 303 304 306 307 308 308 307 306 306 307 309 311 314 315 313 312 314 317 316 316 316 315 312 309 307 306 304 303 303 302 298 294 291 288 286 283 280 276 270 267 267 268 270 272 273 273 273 272 271 271 271 271 271 272 273 274 275 276 276 277 278 278 279 279 279 279 279 279 279 279 278 278 278 278 278 278 278
303 303 302 300 299 298 298 299 300 301 303 304 305 304 302 301 300 301 302 305 308 310 310 310 311 314 317 316 315 316 317 315 311 308 306 305 305 304 303 298 295 293 290 287 284 280 275 268 264 263 264 268 270 272 272 271 270 270 270 270 270 270 271 271 272 273 274 274 275 275 275 276 276 276 276 276 276 276 276 276 276 276 276 277 277 277
304 304 303 301 299 298 298 298 299 300 300 300 298 296 295 295 295 297 298 301 305 306 306 308 310 313 314 314 314 315 318 318 314 309 307 307 306 306 303 300 297 295 293 290 285 279 274 267 263 261 262 264 267 269 269 268 268 268 268 268 268 268 269 269 270 271 271 272 272 273 273 273 273 273 274 273 274 274 274 275 275 275 275 276 276 276
303 303 303 302 300 300 300 301 302 303 301 299 293 288 288 291 292 293 296 300 302 303 303 306 309 312 314 314 314 314 318 319 316 312 308 308 307 306 304 302 300 299 296 292 286 280 276 271 266 263 263 264 264 266 266 265 265 264 264 264 265 266 266 267 268 269 270 270 271 271 271 271 272 272 272 272 273 273 273 274 274 275 275 275 275 275
300 300 300 299 299 299 300 303 305 306 305 302 295 289 287 290 291 292 295 298 299 299 300 304 307 309 311 311 310 311 315 316 315 312 310 308 306 305 304 303 303 302 300 296 287 280 280 274 270 266 264 264 263 262 261 260 259 259 260 262 264 265 267 268 269 269 270 270 271 271 271 272 272 272 273 273 273 273 274 274 274 274 274 274 274 274
296 295 294 294 294 296 298 301 304 305 305 302 299 295 292 292 292 293 294 295 296 297 298 301 303 305 307 307 307 308 312 314 313 311 310 307 304 303 303 303 303 304 303 301 296 290 287 278 271 267 264 261 258 256 255 255 257 259 261 264 267 269 270 271 271 272 272 272 273 273 273 273 273 273 273 273 274 274 274 274 273 273 274 274 274 273
292 290 288 289 289 292 295 298 300 302 302 301 299 296 295 293 293 293 293 294 294 295 296 298 299 301 303 304 304 305 308 310 311 311 308 305 303 303 303 304 304 304 306 306 306 304 298 284 271 265 261 257 255 255 258 262 265 267 269 271 272 273 274 274 274 274 275 275 275 275 274 274 273 273 273 273 273 273 272 272 272 273 273 273 274 273
293 290 288 288 289 291 293 295 297 299 300 299 298 297 295 295 294 294 293 293 294 294 294 295 296 297 299 300 300 300 304 306 309 310 307 304 302 301 302 303 304 304 305 304 304 304 300 290 279 269 263 260 260 262 267 270 272 274 275 275 275 275 275 275 275 276 276 276 275 275 274 274 273 272 272 271 271 271 271 271 271 272 273 273 274 274
296 294 292 291 291 292 293 295 296 297 297 297 297 296 296 296 295 295 294 293 292 292 292 292 293 294 296 297 297 298 301 304 307 308 306 303 301 300 301 301 302 302 302 301 299 297 294 292 287 279 271 265 264 266 269 271 273 274 275 275 274 274 274 276 276 277 278 278 278 277 276 275 274 273 272 271 271 270 270 270 271 271 272 273 274 274
298 296 294 293 292 292 293 294 295 295 296 296 295 295 295 295 295 294 293 292 291 290 290 290 291 292 293 294 295 296 298 302 304 304 303 300 299 299 299 300 300 301 301 300 299 296 293 292 291 289 284 278 275 276 279 279 278 278 279 280 280 281 281 283 285 285 286 285 284 282 280 278 277 275 274 273 272 271 271 270 270 270 271 272 272 272
296 294 292 291 290 290 291 292 293 294 293 293 293 293 293 293 293 292 291 290 289 289 288 289 290 291 292 293 294 295 297 300 301 301 300 298 297 297 297 297 298 299 299 299 298 297 296 294 293 294 293 289 287 288 292 293 292 290 291 292 293 295 296 296 297 296 295 293 291 287 284 281 279 277 275 274 273 272 271 270 269 269 269 269 270 271
296 294 292 290 288 288 289 290 291 291 291 290 290 290 290 291 291 291 289 288 287 287 288 289 291 292 293 294 294 296 298 301 301 300 298 297 296 295 295 295 296 297 297 297 297 297 297 295 295 295 295 295 295 296 299 300 300 300 301 303 304 305 306 306 305 304 302 300 297 294 290 287 283 280 278 275 273 272 270 269 268 268 267 268 268 269
297 295 293 290 288 288 288 288 288 288 287 287 288 289 289 290 290 289 288 288 287 288 289 290 292 293 295 296 297 298 300 302 301 300 298 296 294 293 292 293 293 295 295 296 296 296 297 297 296 295 296 297 299 302 305 306 306 307 309 311 312 313 313 313 312 311 309 307 304 301 298 295 291 287 283 279 276 273 270 269 268 267 267 267 267 268
297 295 293 290 288 287 286 286 285 285 285 286 288 289 290 290 290 290 290 290 291 291 292 293 294 295 297 298 299 300 301 301 301 299 297 295 293 292 291 291 292 293 294 294 295 296 297 297 297 298 298 298 300 303 307 309 310 312 314 315 316 317 318 319 318 317 315 312 309 307 304 301 297 293 289 285 281 278 274 271 269 268 267 267 267 267
298 295 292 289 287 286 285 284 284 284 285 287 288 289 290 291 292 292 293 294 295 296 297 298 298 299 300 300 301 301 301 301 299 297 295 294 292 291 290 291 291 292 293 293 293 294 294 295 296 297 298 300 301 303 305 307 311 313 315 315 316 318 320 321 321 320 318 316 313 311 308 305 302 298 295 291 288 286 282 279 275 273 271 269 269 269
298 295 291 288 286 284 284 284 285 286 287 287 288 289 290 291 293 294 296 298 299 300 301 301 302 302 302 302 303 303 302 300 298 297 295 293 292 291 290 291 291 292 293 293 293 292 293 293 293 295 297 299 301 303 304 307 310 314 317 318 320 322 322 323 323 322 320 318 316 314 312 309 305 302 298 295 293 291 289 286 284 280 277 275 274 273
298 294 291 287 285 286 286 287 287 287 287 288 289 289 290 290 291 293 296 299 301 302 304 304 304 304 305 305 306 306 305 303 301 299 297 295 294 293 292 292 293 293 294 294 293 293 292 292 293 294 296 298 300 301 302 305 309 314 318 320 321 321 321 322 323 323 322 321 319 317 314 311 307 303 300 298 296 294 293 291 288 286 283 281 279 278
298 294 290 287 287 287 288 287 287 287 288 289 289 289 289 289 291 293 296 300 303 304 305 306 306 307 308 308 308 307 306 304 303 301 299 298 297 296 295 295 295 295 295 295 295 294 294 293 293 294 295 298 299 300 301 303 307 313 317 319 319 318 317 320 322 324 323 321 320 318 316 313 310 307 304 302 299 297 295 293 291 289 287 285 283 282
297 294 291 290 290 289 289 288 288 289 289 289 288 288 289 291 293 295 298 301 303 304 304 304 304 304 304 304 303 302 301 301 300 300 298 298 297 296 296 296 296 296 297 297 296 295 295 295 294 295 297 298 298 299 300 303 307 311 315 318 318 318 318 319 321 322 321 320 320 319 318 316 313 310 308 305 303 300 298 295 293 291 290 289 287 285
298 296 294 293 291 291 290 290 289 289 288 287 286 287 290 293 295 298 300 301 301 301 301 301 301 301 301 302 303 303 303 302 300 299 298 297 297 297 297 298 298 299 298 297 296 295 296 296 296 296 298 297 297 297 298 302 306 310 313 315 315 315 315 317 319 320 320 319 319 320 320 318 315 312 310 307 305 304 302 300 298 296 296 295 293 292
301 298 296 294 292 291 289 289 288 287 286 285 285 287 291 294 297 299 301 302 302 302 302 302 303 304 306 307 308 310 311 310 309 306 304 301 300 299 299 299 300 299 298 297 295 295 295 295 296 297 297 296 295 295 297 302 305 308 310 312 312 311 311 313 316 318 319 319 319 320 321 319 317 315 313 311 310 309 308 307 305 304 303 303 303 302
301 298 295 293 291 290 289 288 287 285 284 284 286 288 292 295 298 300 301 303 304 304 305 305 308 310 313 315 317 318 318 318 317 316 314 309 305 302 301 300 299 298 297 296 295 295 294 294 295 296 295 294 294 294 297 301 305 307 309 310 310 309 309 311 314 317 318 319 319 320 321 320 319 318 317 315 314 313 311 310 309 308 308 308 309 309
299 296 293 291 289 288 288 287 286 284 283 283 285 289 293 296 299 301 302 304 305 306 307 309 311 314 317 319 321 323 323 322 322 322 321 318 312 307 303 300 298 297 296 295 294 294 293 293 293 293 293 293 294 296 299 302 305 307 309 309 309 308 309 310 313 316 317 318 320 321 321 321 320 319 318 316 315 313 312 311 310 309 309 310 311 311
298 295 292 289 287 286 284 284 283 282 281 283 286 290 293 296 299 302 303 305 307 308 309 311 313 316 317 320 322 324 325 325 324 322 321 319 316 312 308 304 301 298 296 295 294 293 292 292 291 291 291 292 294 297 301 304 306 307 308 309 309 309 309 311 313 316 317 318 319 320 320 320 319 319 318 316 315 313 312 311 310 309 309 310 310 310
296 294 291 289 286 284 282 281 281 281 281 284 287 290 294 297 300 302 304 306 307 308 309 310 312 314 316 318 321 323 324 323 322 321 320 319 317 315 313 311 308 305 302 300 299 297 297 295 294 294 294 295 297 300 304 306 307 308 308 308 308 309 310 312 313 315 317 317 317 318 318 318 318 318 317 315 314 313 311 311 310 309 309 309 309 309
293 291 290 288 286 284 281 281 281 281 283 287 290 293 296 298 301 303 306 308 308 308 309 309 311 313 316 319 321 322 322 322 321 321 322 321 319 318 317 315 314 313 312 310 308 307 305 304 301 300 299 300 301 303 305 307 309 309 308 308 309 310 311 312 313 315 316 315 315 315 316 316 316 316 315 312 311 310 310 309 309 308 309 309 309 308
292 290 289 287 286 284 282 282 282 283 286 288 292 295 298 300 302 305 307 308 309 309 310 311 312 314 318 320 322 323 324 325 325 326 327 326 325 323 321 320 319 319 319 317 316 315 313 311 308 305 303 303 305 307 307 308 309 309 308 308 309 310 310 311 312 313 314 314 314 314 314 314 314 314 312 309 307 307 307 308 308 308 308 309 309 308